Location: Warszawa
(52.2500°N, 21.0000°E)
Time: 20:06:55
(UTC+02:00)

Vanguard 2 - Pass Details

Date: 07 February 2023
Orbit: 553 x 2927 km, 32.9° (Epoch: 27 March)

Event Time Altitude Azimuth Distance (km) Brightness Sun altitude
Rises 20:54:36 0° 229° (SW) 5,045 11.9 -39.3°
Reaches altitude 10° 20:58:01 10° 219° (SW) 4,373 11.4 -39.7°
Enters shadow 21:03:06 25° 198° (SSW) 3,723 10.8 -40.4°
